Flag for Germany Weather past 2 weeks in Altenburg, Thuringia, Germany

Now
46 °F

Sprinkles. Broken clouds.


Feels Like: 38 °F
Forecast: 37 / 42 °F
Wind: 22 mph from Northwest

Location: Altenburg Nobitz

Current Time: Mar 31, 2015 at 12:32:21 PM

Latest Report: Mar 31, 2015 at 11:50 AM


Visibility: 5 mi

Pressure: 29.27 "Hg

Humidity: 100%

Dew point: 46 °F

Location of AltenburgLocation

Historic Weather in Altenburg — Graph

°F

Altenburg temperature yesterday

Maximum temperature yesterday: 50 °F (at 3:50 PM)
Minimum temperature yesterday: 39 °F (at 12:20 PM)
Average temperature yesterday: 44 °F

Past Weeks' High & Low Weather Summary

 TemperatureHumidityPressure
High59 °F (Mar 17, 2:50 PM)100% (Mar 19, 8:20 AM)30.33 "Hg (Mar 19, 8:20 AM)
Low32 °F (Mar 22, 9:20 AM)32% (Mar 20, 5:20 PM)29.18 "Hg (Mar 31, 9:50 AM)
Average46 °F70%29.96 "Hg
* Reported Mar 16 11:20 AM — Mar 31 11:20 AM, Altenburg, Weather by CustomWeather, © 2015

Note: Actual official high and low records may vary slightly from our data, if they occured in-between our weather recording intervals... More about our weather records

Advertising

Altenburg weather history for previous 24 hours

 ConditionsComfort  
Time TempWeatherWind HumidityBarometerVisibility
11:20 AM
Tue, Mar 31
45 °FSprinkles. Broken clouds.21 mph100%29.27 "Hg5 mi
10:50 AM55 °FScattered showers. Broken clouds.31 mph67%29.18 "HgN/A
10:20 AM54 °FScattered showers. Broken clouds.22 mph82%29.18 "HgN/A
9:50 AM52 °FScattered showers. Broken clouds.20 mph88%29.18 "HgN/A
9:20 AM50 °FBroken clouds.20 mph94%29.21 "HgN/A
8:50 AM45 °FLight rain. Broken clouds.17 mph100%29.21 "HgN/A
8:20 AM43 °FLight rain. Broken clouds.18 mph100%29.21 "HgN/A
7:50 PM
Mon, Mar 30
39 °FScattered showers. Scattered clouds.15 mph81%29.71 "HgN/A
7:20 PM39 °FScattered showers. Scattered clouds.15 mph81%29.71 "HgN/A
6:50 PM39 °FScattered showers. Scattered clouds.28 mph81%29.68 "HgN/A
6:20 PM43 °FScattered showers. Scattered clouds.17 mph71%29.65 "HgN/A
5:50 PM45 °FScattered clouds.23 mph61%29.62 "HgN/A
5:20 PM45 °FScattered showers. Scattered clouds.25 mph71%29.62 "HgN/A
4:50 PM46 °FScattered showers. Scattered clouds.28 mph57%29.59 "HgN/A
4:20 PM48 °FScattered clouds.28 mph50%29.56 "HgN/A
3:50 PM50 °FScattered clouds.25 mph54%29.53 "HgN/A
3:20 PM48 °FScattered clouds.26 mph54%29.53 "HgN/A
2:50 PM48 °FScattered clouds.25 mph58%29.53 "HgN/A
2:20 PM48 °FScattered clouds.24 mph58%29.50 "HgN/A
1:50 PM46 °FScattered clouds.23 mph62%29.50 "HgN/A
1:20 PM43 °FScattered clouds.22 mph71%29.50 "HgN/A
12:50 PM41 °FSprinkles. Partly sunny.24 mph81%29.47 "HgN/A
12:20 PM39 °FSprinkles. Partly sunny.23 mph81%29.47 "HgN/A
Weather by CustomWeather, © 2015

See weather overviewHow to use our weather pages